Time,TemperatureF,DewpointF,PressureIn,WindDirection,WindDirectionDegrees,WindSpeedMPH,WindSpeedGustMPH,Humidity,HourlyPrecipIn,Conditions,Clouds,dailyrainin,SoftwareType,DateUTC
2013-06-26 00:22:00,62.0,-99.9,29.99,West,260,6.0,10.0,-999,-99.99,,,-99.99,,2013-06-26 07:22:00,
2013-06-26 00:33:00,62.0,-99.9,29.99,West,260,6.0,10.0,-999,-99.99,,,-99.99,,2013-06-26 07:33:00,
2013-06-26 00:43:00,62.0,-99.9,30.00,West,275,6.0,9.0,-999,-99.99,,,-99.99,,2013-06-26 07:43:00,
2013-06-26 00:53:00,62.0,-99.9,29.99,WNW,283,6.0,9.0,-999,-99.99,,,-99.99,,2013-06-26 07:53:00,
2013-06-26 01:01:00,62.0,-99.9,29.99,West,272,7.0,9.0,-999,-99.99,,,-99.99,,2013-06-26 08:01:00,
2013-06-26 01:22:00,62.0,-99.9,29.99,West,273,7.0,9.0,-999,-99.99,,,-99.99,,2013-06-26 08:22:00,
2013-06-26 01:43:00,62.0,-99.9,29.99,WSW,244,6.0,8.0,-999,-99.99,,,-99.99,,2013-06-26 08:43:00,
2013-06-26 01:53:00,62.0,-99.9,29.99,SW,222,5.0,7.0,-999,-99.99,,,-99.99,,2013-06-26 08:53:00,
2013-06-26 02:11:00,62.0,-99.9,29.99,SW,231,5.0,6.0,-999,-99.99,,,-99.99,,2013-06-26 09:11:00,
2013-06-26 02:43:00,62.0,-99.9,29.99,SW,227,6.0,8.0,-999,-99.99,,,-99.99,,2013-06-26 09:43:00,
2013-06-26 02:53:00,62.0,-99.9,29.99,WSW,249,4.0,6.0,-999,-99.99,,,-99.99,,2013-06-26 09:53:00,
2013-06-26 03:12:00,62.0,-99.9,29.99,West,261,5.0,6.0,-999,-99.99,,,-99.99,,2013-06-26 10:12:00,
2013-06-26 03:22:00,62.0,-99.9,29.99,West,261,5.0,6.0,-999,-99.99,,,-99.99,,2013-06-26 10:22:00,
2013-06-26 03:53:00,62.0,-99.9,29.99,WSW,242,4.0,5.0,-999,-99.99,,,-99.99,,2013-06-26 10:53:00,
2013-06-26 04:02:00,62.0,-99.9,29.99,WSW,242,4.0,5.0,-999,-99.99,,,-99.99,,2013-06-26 11:02:00,
2013-06-26 04:12:00,62.0,-99.9,29.99,SSW,209,2.0,4.0,-999,-99.99,,,-99.99,,2013-06-26 11:12:00,
2013-06-26 04:23:00,62.0,-99.9,30.00,South,188,2.0,3.0,-999,-99.99,,,-99.99,,2013-06-26 11:23:00,
2013-06-26 04:44:00,62.0,-99.9,30.00,SSW,198,4.0,4.0,-999,-99.99,,,-99.99,,2013-06-26 11:44:00,
2013-06-26 04:52:00,62.0,-99.9,30.00,South,183,3.0,4.0,-999,-99.99,,,-99.99,,2013-06-26 11:52:00,
2013-06-26 05:22:00,61.0,-99.9,30.00,SE,144,4.0,5.0,-999,-99.99,,,-99.99,,2013-06-26 12:22:00,
2013-06-26 05:43:00,62.0,-99.9,30.01,SSE,152,3.0,4.0,-999,-99.99,,,-99.99,,2013-06-26 12:43:00,
2013-06-26 05:52:00,62.0,-99.9,30.01,South,190,2.0,4.0,-999,-99.99,,,-99.99,,2013-06-26 12:52:00,
2013-06-26 06:53:00,61.0,-99.9,30.03,South,191,3.0,4.0,-999,-99.99,,,-99.99,,2013-06-26 13:53:00,
2013-06-26 07:53:00,62.0,-99.9,30.04,SW,226,3.0,4.0,-999,-99.99,,,-99.99,,2013-06-26 14:53:00,
2013-06-26 08:44:00,62.0,-99.9,30.05,SW,221,4.0,6.0,-999,-99.99,,,-99.99,,2013-06-26 15:44:00,
2013-06-26 08:53:00,62.0,-99.9,30.05,SW,227,3.0,5.0,-999,-99.99,,,-99.99,,2013-06-26 15:53:00,
2013-06-26 09:22:00,63.0,-99.9,30.05,South,190,6.0,7.0,-999,-99.99,,,-99.99,,2013-06-26 16:22:00,
2013-06-26 09:52:00,64.0,-99.9,30.06,SSW,211,4.0,7.0,-999,-99.99,,,-99.99,,2013-06-26 16:52:00,
2013-06-26 10:33:00,65.0,-99.9,30.06,SW,226,5.0,7.0,-999,-99.99,,,-99.99,,2013-06-26 17:33:00,
2013-06-26 10:52:00,65.0,-99.9,30.06,SW,225,7.0,9.0,-999,-99.99,,,-99.99,,2013-06-26 17:52:00,
2013-06-26 11:43:00,65.0,-99.9,30.06,SSW,213,5.0,9.0,-999,-99.99,,,-99.99,,2013-06-26 18:43:00,
2013-06-26 11:52:00,65.0,-99.9,30.06,SSW,197,6.0,9.0,-999,-99.99,,,-99.99,,2013-06-26 18:52:00,
2013-06-26 12:11:00,66.0,-99.9,30.07,SSW,195,6.0,7.0,-999,-99.99,,,-99.99,,2013-06-26 19:11:00,
2013-06-26 12:22:00,66.0,-99.9,30.07,SSW,195,6.0,7.0,-999,-99.99,,,-99.99,,2013-06-26 19:22:00,
2013-06-26 12:52:00,68.0,-99.9,30.06,SW,231,9.0,12.0,-999,-99.99,,,-99.99,,2013-06-26 19:52:00,
2013-06-26 13:53:00,65.0,-99.9,30.06,SW,224,15.0,19.0,-999,-99.99,,,-99.99,,2013-06-26 20:53:00,
2013-06-26 14:52:00,65.0,-99.9,30.05,SW,219,9.0,13.0,-999,-99.99,,,-99.99,,2013-06-26 21:52:00,
2013-06-26 16:22:00,70.0,-99.9,30.03,WSW,252,4.0,6.0,-999,-99.99,,,-99.99,,2013-06-26 23:22:00,
2013-06-26 16:53:00,68.0,-99.9,30.02,SW,215,5.0,6.0,-999,-99.99,,,-99.99,,2013-06-26 23:53:00,
2013-06-26 17:22:00,71.0,-99.9,30.02,SSW,206,2.0,5.0,-999,-99.99,,,-99.99,,2013-06-27 00:22:00,
2013-06-26 17:43:00,68.0,-99.9,30.01,West,276,3.0,8.0,-999,-99.99,,,-99.99,,2013-06-27 00:43:00,
2013-06-26 17:53:00,72.0,-99.9,30.01,South,189,3.0,4.0,-999,-99.99,,,-99.99,,2013-06-27 00:53:00,
2013-06-26 18:43:00,65.0,-99.9,30.00,SSW,199,6.0,9.0,-999,-99.99,,,-99.99,,2013-06-27 01:43:00,
2013-06-26 19:11:00,66.0,-99.9,30.01,SSW,204,3.0,6.0,-999,-99.99,,,-99.99,,2013-06-27 02:11:00,
2013-06-26 19:22:00,67.0,-99.9,30.01,SSW,196,2.0,4.0,-999,-99.99,,,-99.99,,2013-06-27 02:22:00,
2013-06-26 19:42:00,67.0,-99.9,30.01,South,176,4.0,6.0,-999,-99.99,,,-99.99,,2013-06-27 02:42:00,
2013-06-26 19:52:00,66.0,-99.9,30.01,ESE,118,4.0,5.0,-999,-99.99,,,-99.99,,2013-06-27 02:52:00,
2013-06-26 20:42:00,63.0,-99.9,30.01,SSE,160,10.0,13.0,-999,-99.99,,,-99.99,,2013-06-27 03:42:00,
2013-06-26 20:52:00,63.0,-99.9,30.01,SSE,162,7.0,9.0,-999,-99.99,,,-99.99,,2013-06-27 03:52:00,
2013-06-26 21:11:00,63.0,-99.9,30.02,ESE,115,7.0,9.0,-999,-99.99,,,-99.99,,2013-06-27 04:11:00,
2013-06-26 21:22:00,64.0,-99.9,30.02,ESE,116,4.0,7.0,-999,-99.99,,,-99.99,,2013-06-27 04:22:00,
2013-06-26 21:42:00,64.0,-99.9,30.03,ESE,115,5.0,6.0,-999,-99.99,,,-99.99,,2013-06-27 04:42:00,
2013-06-26 21:53:00,65.0,-99.9,30.03,ESE,123,2.0,4.0,-999,-99.99,,,-99.99,,2013-06-27 04:53:00,
2013-06-26 22:02:00,65.0,-99.9,30.03,SE,125,4.0,4.0,-999,-99.99,,,-99.99,,2013-06-27 05:02:00,
2013-06-26 22:12:00,65.0,-99.9,30.03,SE,125,4.0,4.0,-999,-99.99,,,-99.99,,2013-06-27 05:12:00,
2013-06-26 22:22:00,64.0,-99.9,30.04,ESE,123,4.0,5.0,-999,-99.99,,,-99.99,,2013-06-27 05:22:00,
2013-06-26 22:32:00,64.0,-99.9,30.05,SSE,167,3.0,5.0,-999,-99.99,,,-99.99,,2013-06-27 05:32:00,
2013-06-26 22:42:00,64.0,-99.9,30.05,SSE,167,3.0,5.0,-999,-99.99,,,-99.99,,2013-06-27 05:42:00,
2013-06-26 22:53:00,64.0,-99.9,30.05,South,191,4.0,5.0,-999,-99.99,,,-99.99,,2013-06-27 05:53:00,
2013-06-26 23:23:00,65.0,-99.9,30.05,South,181,2.0,4.0,-999,-99.99,,,-99.99,,2013-06-27 06:23:00,
2013-06-26 23:43:00,64.0,-99.9,30.06,SSW,196,3.0,4.0,-999,-99.99,,,-99.99,,2013-06-27 06:43:00,
2013-06-26 23:53:00,65.0,-99.9,30.06,SSW,210,2.0,3.0,-999,-99.99,,,-99.99,,2013-06-27 06:53:00,